Regional Weather Roundup
Issued by NWS Huntsville, AL

Home | Current Version | Previous Version | Text Only | Print | Product List | Glossary On
Versions: 1 2 3 4 5 6 7 8 9 10 11 12 13 14 15 16 17 18 19 20 21 22 23 24 25 26 27
000
ASUS44 KHUN 192210
RWRHUN

WEATHER ROUNDUP FOR THE TENNESSEE VALLEY
NATIONAL WEATHER SERVICE HUNTSVILLE AL
500 PM CDT TUE SEP 19 2017

ALZ001>004-192300-
NORTHWEST ALABAMA

CITY           SKY/WX    TMP DP  RH WIND       PRES   REMARKS
COURTLAND HCN    N/A     81 N/A N/A SE5         N/A
RUSSELLVILLE     N/A     82 N/A N/A MISG        N/A
SHOALS AIRPORT SUNNY     84  70  62 S7        29.94S
SHOALS TVA RES   N/A     82 N/A N/A MISG        N/A
$$

ALZ005>007-016-192300-
NORTH CENTRAL ALABAMA

CITY           SKY/WX    TMP DP  RH WIND       PRES   REMARKS
CULLMAN AG STN   N/A     72 N/A N/A CALM        N/A
DECATUR AP     SUNNY     78  72  81 SE8       29.95F
HUNTSVILLE AP  MOSUNNY   77  72  84 S7        29.95F
MERIDIANVILLE  MOSUNNY   79  70  73 SE5       29.96S
REDSTONE ARSN  MOSUNNY   77  69  77 S5        29.94F
VINEMONT AP    FAIR      77  69  76 SE3       29.99F
$$

ALZ008>010-192300-
NORTHEAST ALABAMA

CITY           SKY/WX    TMP DP  RH WIND       PRES   REMARKS
ALBERTVILLE    PTSUNNY   70  70 100 CALM      29.99R
FORT PAYNE     LGT RAIN  72  68  88 CALM      29.99S
SCOTTSBORO HCN   N/A     75 N/A N/A MISG        N/A
VALLEY HEAD      N/A     72 N/A N/A MISG        N/A
$$

TNZ076-096-097-192300-
SOUTHEASTERN MIDDLE TENNESSEE

CITY           SKY/WX    TMP DP  RH WIND       PRES   REMARKS
TULLAHOMA      MOSUNNY   73  64  73 SE7       29.99R
WINCHESTER     MOSUNNY   75  68  78 E6        29.98S
$$

...SURROUNDING SITES...

CITY           SKY/WX    TMP DP  RH WIND       PRES   REMARKS
ATLANTA        PTSUNNY   87  61  41 N9        29.97R
ANNISTON       TSTM      74  66  76 N17G33    29.97R
BIRMINGHAM     CLOUDY    73  70  90 CALM      30.01R
CHATTANOOGA    CLOUDY    72  69  90 S6        29.98F
DALTON         CLOUDY    81  70  69 CALM      29.99R
GADSDEN        LGT RAIN  71  71 100 SE6       29.98F
GOLDEN TRNGL   MOSUNNY   91  68  46 NW7       29.87S HX  95
HALEYVILLE     FAIR      82  74  76 VRB5      29.98R
JACKSON TN     MOSUNNY   90  69  50 W6        29.90S HX  94
MEMPHIS        MOSUNNY   90  68  48 W8        29.89F HX  94
NASHVILLE      CLOUDY    73  67  81 E7        29.94F
OXFORD MS      FAIR      88  68  51 W7        29.92S HX  91
ROME           CLOUDY    82  71  69 CALM      29.96R
SAVANNAH       SUNNY     88  68  51 CALM      29.89S HX  91
SELMER         MOSUNNY   88  70  55 VRB3      29.90S HX  92
TUPELO         SUNNY     89  66  46 W8        29.90S HX  91
TUSCALOOSA     SUNNY     88  75  65 SE3       29.91R HX  97
$$

...GULF COAST WEATHER...

CITY           SKY/WX    TMP DP  RH WIND       PRES   REMARKS
GULFPORT       SUNNY     88  74  63 S8        29.92F HX  96
PASCAGOULA     CLOUDY    85  74  69 S3        29.92F HX  92
MOBILE         PTSUNNY   84  72  67 W5        29.94F
GULF SHORES    MOCLDY    84  75  74 W8G20     29.93S HX  93
PENSACOLA      PTSUNNY   86  74  67 SW9       29.92F HX  94
DESTIN         CLOUDY    87  74  64 VRB7      29.92F HX  95
PANAMA CITY    SUNNY     85  75  72 W12       29.93F HX  93
APPALACHICOLA  SUNNY     87  77  72 W10       29.93S HX  99
$$





USA.gov is the U.S. government's official web portal to all federal, state and local government web resources and services.